Location: Unspecified
(39.6445°N, 0.0000°E)
Time: 19:43:27
(UTC+00:00)

Tiangong 2 - Visible Passes

Search period start: 24 June 2019 00:00
Search period end: 04 July 2019 00:00
Orbit: 376 x 388 km, 42.8° (Epoch: 24 June)

Date Brightness Start Highest point End Pass type
(mag) Time Alt. Az. Time Alt. Az. Time Alt. Az.
24 Jun 2.8 03:36:49 11° SSW 03:39:10 23° SSE 03:41:45 10° E visible
25 Jun 3.5 02:39:17 13° SE 02:39:17 13° SE 02:40:39 10° ESE visible
26 Jun 1.8 03:13:50 23° SSW 03:15:16 39° SSE 03:18:15 10° E visible
27 Jun 3.1 02:16:12 19° ESE 02:16:12 19° ESE 02:17:43 10° E visible
27 Jun 1.1 03:48:29 10° WSW 03:51:39 79° NNW 03:54:49 10° ENE visible
28 Jun 1.0 02:50:40 45° SW 02:51:25 65° SSE 02:54:34 10° ENE visible
29 Jun 3.2 01:52:58 20° E 01:52:58 20° E 01:54:12 10° E visible
29 Jun 1.6 03:25:07 12° W 03:27:54 58° NNW 03:31:01 10° ENE visible
30 Jun 0.9 02:27:24 75° WNW 02:27:37 81° NNW 02:30:47 10° ENE visible
30 Jun 2.2 04:01:27 10° WNW 04:04:30 44° N 04:07:34 10° ENE visible
01 Jul 3.7 01:29:41 16° ENE 01:29:41 16° ENE 01:30:30 10° ENE visible
01 Jul 1.9 03:01:50 16° WNW 03:04:09 47° N 03:07:14 10° ENE visible
02 Jul 1.7 02:04:09 54° NNE 02:04:09 54° NNE 02:06:56 10° ENE visible
02 Jul 2.1 03:37:43 10° WNW 03:40:46 47° N 03:43:50 10° E visible
03 Jul 4.2 01:06:29 11° ENE 01:06:29 11° ENE 01:06:41 10° ENE visible
03 Jul 2.1 02:38:39 21° WNW 02:40:24 44° N 02:43:27 10° ENE visible
